SWAYAM (41607 NORAD) Tracking and Keplerian Element Data

This shows tracking and keplerian element data for the satellite.

Feedback or suggestion? Click here.




ElementValue
Catalog41607
NameSWAYAM
Epoch Orbit39018
Epoch Day175.66857639
Epoch Year2023
RAAN226.6169
Inclination97.1476
Eccentricity0.0007797
Argument of Perigee191.4218
Mean Anonmoly168.6869
Mean Motion15.70669365
Decay Rate0.00192469
L11 41607U 16040J 23175.66857639 .00192469 00000+0 15265-2 0 9998
L22 41607 97.1476 226.6169 0007797 191.4218 168.6869 15.70669365390185



Live tracking and technical data element details for SWAYAM (NORAD 41607). SWAYAM can be tracked NOW for your location showing map with azimuth and elevation plus other details from your city location.







IsCatalogInMostPopularTable: catalog: 41607, numindb: 464
Update: records affected: 1



GetName: 41607 SWAYAM

Hit Count: updated at: Thu, 15 May 2025 09:33:07 GMT